Trinity Center, CA

12:54 PM PDT on June 26, 2017 (GMT -0700)
Trinity Center

Weather History for KO86 - March, 2013

Change the Weather History Date:

Thursday, March 21, 2013

  Actual Average (KMHS) Record (KMHS)
Temperature  
Mean Temperature 42 °F -  
Max Temperature 55 °F 53 °F 78 °F (1940)
Min Temperature 28 °F 32 °F 19 °F (1953)
Degree Days  
Heating Degree Days 24    
Moisture  
Dew Point 25 °F    
Average Humidity 61    
Maximum Humidity 100    
Minimum Humidity 22    
Precipitation  
Precipitation 0.00 in - - ()
Sea Level Pressure  
Sea Level Pressure 30.19 in    
Wind  
Wind Speed 5 mph (NNW)    
Max Wind Speed 14 mph    
Max Gust Speed 22 mph    
Visibility 10 miles    
Events      
Averages and records for this station are not official NWS values.
T = Trace of Precipitation, MM = Missing Value Source: NWS Daily Summary

Daily Weather History Graph

Daily Weather History Graph

Search for Another Location

Airport or City:

Trip Planner

Search our weather history database for the weather conditions in past years. The results will help you decide how hot, cold, wet, or windy it might be!

Date:

Astronomy

Mar. 21, 2013 Rise Set
Actual Time 7:11 AM PDT 7:24 PM PDT
Civil Twilight 6:44 AM PDT 7:51 PM PDT
Nautical Twilight 6:12 AM PDT 8:24 PM PDT
Astronomical Twilight 5:39 AM PDT 8:56 PM PDT
Moon 1:57 PM PDT (3/21) 3:39 AM PDT (3/21)
Length of Visible Light 13h 07m
Length of Day
12h 12m
Waxing Gibbous, 69% of the Moon is Illuminated
Mar 21
Waxing Gibbous
Mar 27
Full
Apr 2
Last Quarter
Apr 10
New
Apr 18
First Quarter

Hourly Weather History & Observations

Time (PDT) Temp. Windchill Dew Point Humidity Pressure Visibility Wind Dir Wind Speed Gust Speed Precip Events Conditions
12:15 AM 35.6 °F 31.7 °F 32.0 °F 87% 30.14 in 10.0 mi West 4.6 mph - N/A   Clear
12:35 AM 35.6 °F 30.7 °F 32.0 °F 87% 30.16 in 10.0 mi West 5.8 mph - N/A   Clear
12:55 AM 33.8 °F 29.6 °F 32.0 °F 93% 30.17 in 10.0 mi WSW 4.6 mph - N/A   Clear
1:15 AM 35.6 °F 32.8 °F 32.0 °F 87% 30.17 in 10.0 mi West 3.5 mph - N/A   Clear
1:35 AM 32.0 °F 26.4 °F 32.0 °F 100% 30.18 in 10.0 mi WSW 5.8 mph - N/A   Clear
1:55 AM 32.0 °F 27.5 °F 32.0 °F 100% 30.18 in 10.0 mi West 4.6 mph - N/A   Clear
2:15 AM 32.0 °F 26.4 °F 32.0 °F 100% 30.18 in 10.0 mi West 5.8 mph - N/A   Clear
2:35 AM 32.0 °F 28.7 °F 30.2 °F 93% 30.19 in 10.0 mi West 3.5 mph - N/A   Clear
2:55 AM 32.0 °F 28.7 °F 30.2 °F 93% 30.20 in 10.0 mi West 3.5 mph - N/A   Clear
3:15 AM 32.0 °F 28.7 °F 30.2 °F 93% 30.20 in 10.0 mi West 3.5 mph - N/A   Clear
3:35 AM 32.0 °F 27.5 °F 30.2 °F 93% 30.20 in 10.0 mi West 4.6 mph - N/A   Clear
3:55 AM 32.0 °F 27.5 °F 30.2 °F 93% 30.20 in 10.0 mi West 4.6 mph - N/A   Clear
4:15 AM 32.0 °F - 30.2 °F 93% 30.21 in 10.0 mi Calm Calm - N/A   Mostly Cloudy
4:35 AM 32.0 °F 27.5 °F 30.2 °F 93% 30.21 in 10.0 mi West 4.6 mph - N/A   Overcast
4:55 AM 32.0 °F - 30.2 °F 93% 30.19 in 10.0 mi Calm Calm - N/A   Overcast
5:15 AM 32.0 °F 27.5 °F 28.4 °F 87% 30.19 in 10.0 mi West 4.6 mph - N/A   Overcast
5:35 AM 30.2 °F - 28.4 °F 93% 30.20 in 10.0 mi Calm Calm - N/A   Scattered Clouds
5:55 AM 30.2 °F 26.7 °F 28.4 °F 93% 30.21 in 10.0 mi West 3.5 mph - N/A   Mostly Cloudy
6:15 AM 30.2 °F 26.7 °F 28.4 °F 93% 30.21 in 10.0 mi West 3.5 mph - N/A   Mostly Cloudy
6:35 AM 28.4 °F 24.6 °F 28.4 °F 100% 30.22 in 10.0 mi West 3.5 mph - N/A   Partly Cloudy
6:55 AM 28.4 °F - 26.6 °F 93% 30.22 in 10.0 mi Calm Calm - N/A   Clear
7:15 AM 28.4 °F 24.6 °F 26.6 °F 93% 30.23 in 10.0 mi West 3.5 mph - N/A   Clear
7:35 AM 30.2 °F 26.7 °F 26.6 °F 86% 30.23 in 10.0 mi WSW 3.5 mph - N/A   Clear
7:55 AM 30.2 °F - 26.6 °F 86% 30.23 in 10.0 mi Calm Calm - N/A   Clear
8:15 AM 32.0 °F - 28.4 °F 87% 30.23 in 10.0 mi Calm Calm - N/A   Clear
8:35 AM 35.6 °F 32.8 °F 32.0 °F 87% 30.23 in 10.0 mi SSW 3.5 mph - N/A   Clear
8:55 AM 37.4 °F 32.8 °F 32.0 °F 81% 30.23 in 10.0 mi SSE 5.8 mph - N/A   Clear
9:15 AM 37.4 °F 33.8 °F 32.0 °F 81% 30.23 in 10.0 mi SE 4.6 mph - N/A   Clear
9:35 AM 39.2 °F 37.0 °F 28.4 °F 65% 30.23 in 10.0 mi SE 3.5 mph - N/A   Clear
9:55 AM 39.2 °F 37.0 °F 26.6 °F 61% 30.23 in 10.0 mi SE 3.5 mph - N/A   Clear
10:15 AM 41.0 °F 39.0 °F 26.6 °F 57% 30.23 in 10.0 mi SSE 3.5 mph - N/A   Clear
10:35 AM 44.6 °F 39.2 °F 24.8 °F 46% 30.22 in 10.0 mi NNE 10.4 mph - N/A   Clear
10:50 AM 46.4 °F 41.5 °F 23.0 °F 40% 30.22 in 10.0 mi NNE 10.4 mph 18.4 mph N/A   Clear
11:15 AM 46.4 °F 44.3 °F 23.0 °F 40% 30.22 in 10.0 mi NNW 4.6 mph - N/A   Clear
11:35 AM 48.2 °F - 23.0 °F 37% 30.21 in 10.0 mi North 10.4 mph 18.4 mph N/A   Clear
11:55 AM 48.2 °F - 23.0 °F 37% 30.21 in 10.0 mi North 8.1 mph - N/A   Clear
12:15 PM 50.0 °F - 23.0 °F 35% 30.20 in 10.0 mi NNE 11.5 mph 17.3 mph N/A   Clear
12:35 PM 50.0 °F - 23.0 °F 35% 30.20 in 10.0 mi NNE 6.9 mph 16.1 mph N/A   Clear
12:55 PM 51.8 °F - 23.0 °F 33% 30.19 in 10.0 mi North 10.4 mph 18.4 mph N/A   Clear
1:10 PM 51.8 °F - 19.4 °F 28% 30.19 in 10.0 mi North 12.7 mph 18.4 mph N/A   Clear
1:35 PM 53.6 °F - 19.4 °F 26% 30.18 in 10.0 mi North 11.5 mph 20.7 mph N/A   Clear
1:55 PM 53.6 °F - 19.4 °F 26% 30.18 in 10.0 mi North 11.5 mph 18.4 mph N/A   Clear
2:15 PM 53.6 °F - 21.2 °F 28% 30.18 in 10.0 mi North 6.9 mph 17.3 mph N/A   Clear
2:35 PM 53.6 °F - 21.2 °F 28% 30.17 in 10.0 mi NNE 9.2 mph 16.1 mph N/A   Clear
2:55 PM 53.6 °F - 24.8 °F 33% 30.16 in 10.0 mi NE 12.7 mph 19.6 mph N/A   Clear
3:15 PM 53.6 °F - 23.0 °F 30% 30.15 in 10.0 mi North 9.2 mph 16.1 mph N/A   Clear
3:35 PM 55.4 °F - 23.0 °F 29% 30.15 in 10.0 mi NNE 10.4 mph 17.3 mph N/A   Clear
3:55 PM 53.6 °F - 17.6 °F 24% 30.15 in 10.0 mi NNE 10.4 mph 16.1 mph N/A   Clear
4:15 PM 55.4 °F - 17.6 °F 23% 30.15 in 10.0 mi North 10.4 mph 18.4 mph N/A   Clear
4:35 PM 53.6 °F - 17.6 °F 24% 30.14 in 10.0 mi North 11.5 mph 18.4 mph N/A   Clear
4:55 PM 53.6 °F - 15.8 °F 22% 30.14 in 10.0 mi North 10.4 mph 17.3 mph N/A   Clear
5:15 PM 53.6 °F - 17.6 °F 24% 30.14 in 10.0 mi North 10.4 mph 16.1 mph N/A   Clear
5:35 PM 53.6 °F - 17.6 °F 24% 30.15 in 10.0 mi North 10.4 mph 19.6 mph N/A   Clear
5:55 PM 53.6 °F - 15.8 °F 22% 30.15 in 10.0 mi North 13.8 mph 21.9 mph N/A   Clear
6:10 PM 51.8 °F - 17.6 °F 26% 30.15 in 10.0 mi North 9.2 mph 18.4 mph N/A   Clear
6:35 PM 50.0 °F - 15.8 °F 26% 30.16 in 10.0 mi North 8.1 mph - N/A   Clear
6:50 PM 48.2 °F - 15.8 °F 27% 30.16 in 10.0 mi North 4.6 mph - N/A   Clear
7:10 PM 48.2 °F - 15.8 °F 27% 30.17 in 10.0 mi NNE 6.9 mph - N/A   Clear
7:35 PM 46.4 °F 43.5 °F 15.8 °F 29% 30.17 in 10.0 mi NNW 5.8 mph - N/A   Clear
7:55 PM 42.8 °F 41.1 °F 24.8 °F 49% 30.18 in 10.0 mi North 3.5 mph - N/A   Clear
8:15 PM 41.0 °F - 26.6 °F 57% 30.18 in 10.0 mi Calm Calm - N/A   Clear
8:35 PM 39.2 °F - 26.6 °F 61% 30.19 in 10.0 mi Calm Calm - N/A   Clear
8:55 PM 37.4 °F 34.9 °F 26.6 °F 65% 30.20 in 10.0 mi NW 3.5 mph - N/A   Clear
9:15 PM 39.2 °F 37.0 °F 26.6 °F 61% 30.20 in 10.0 mi NNE 3.5 mph - N/A   Clear
9:35 PM 37.4 °F - 28.4 °F 70% 30.20 in 10.0 mi Calm Calm - N/A   Clear
9:55 PM 37.4 °F - 26.6 °F 65% 30.21 in 10.0 mi Calm Calm - N/A   Clear
10:15 PM 35.6 °F - 26.6 °F 70% 30.21 in 10.0 mi Calm Calm - N/A   Clear
10:35 PM 35.6 °F 32.8 °F 26.6 °F 70% 30.21 in 10.0 mi WNW 3.5 mph - N/A   Clear
10:55 PM 35.6 °F - 26.6 °F 70% 30.21 in 10.0 mi Calm Calm - N/A   Clear
11:15 PM 35.6 °F 32.8 °F 24.8 °F 65% 30.21 in 10.0 mi West 3.5 mph - N/A   Clear
11:35 PM 35.6 °F - 24.8 °F 65% 30.21 in 10.0 mi Calm Calm - N/A   Clear
11:55 PM 35.6 °F - 23.0 °F 60% 30.20 in 10.0 mi Calm Calm - N/A   Clear